This demonstration page uses our WeatherBlox Daily Observations layout. Learn more.

Left ArrowRight Arrow

31.84235, -102.49876

Hourly Observations for May 31, 2021

Temp ( °F °C ) Dew Point ( °F °C ) Humidity (%) Winds ( mph kmh ) Pressure ( in mb ) Visibility ( mi km ) Precip ( " mm )
12:45 am 00:45 Mostly Cloudy 70 21.1 62 16.7 76 76 SE 13 20 29.91 1013 10 16 0.00 0.00
12:53 am 00:53 Cloudy 70 21.1 62 16.7 76 76 SE 10 17 29.93 1013 10 16 0.00 0.00
1:53 am 01:53 Cloudy 71 21.7 63 17.2 76 76 SE 8 13 29.93 1014 10 16 0.00 0.00
2:53 am 02:53 Cloudy with Light Rain 70 21.1 65 18.3 84 84 SSE 9 15 29.91 1013 8 13 0.00 0.00
3:53 am 03:53 Cloudy with Light Rain 69 20.6 65 18.3 87 87 SSE 13 20 29.92 1013 9 14 0.00 0.00
4:05 am 04:05 Cloudy with Light Rain 68 20 65 18.3 90 90 S 9 15 29.93 1014 6 10 0.01 0.25
4:30 am 04:30 Cloudy with Light Rain 68 20 65 18.3 90 90 S 17 28 29.91 1013 6 10 0.01 0.25
4:53 am 04:53 Cloudy with Light Rain 68 20 65 18.3 90 90 SSE 16 26 29.90 1012 6 10 0.01 0.25
5:53 am 05:53 Cloudy with Mist and Fog 68 20 66 18.9 93 93 SSE 10 17 29.92 1013 5 8 0.00 0.00
6:09 am 06:09 Cloudy with Light Rain 68 20 65 18.3 90 90 S 10 17 29.93 1014 4 6 0.00 0.00
6:53 am 06:53 Cloudy with Light Rain 68 20 66 18.9 93 93 SSE 12 19 29.95 1014 3 5 0.01 0.25
7:53 am 07:53 Cloudy with Mist and Fog 68 20 66 18.9 93 93 SSE 10 17 29.96 1014 5 8 0.01 0.25
8:49 am 08:49 Cloudy with Nearby Thunderstorms 68 20 64 18 88 88 S 12 19 29.95 1014 7 11 0.00 0.00
8:53 am 08:53 Cloudy with Nearby Thunderstorms 68 20 65 18.3 90 90 S 13 20 29.96 1015 7 11 0.00 0.00
9:06 am 09:06 Cloudy with Thunderstorms 68 20 65 18.3 90 90 S 9 15 29.97 1015 7 11 0.00 0.00
9:21 am 09:21 Cloudy with Nearby Thunderstorms 68 20 65 18.3 90 90 S 16 26 29.98 1015 8 13 0.00 0.00
9:35 am 09:35 Cloudy with Nearby Thunderstorms 68 20 65 18.3 90 90 S 15 24 29.98 1015 8 13 0.00 0.00
9:53 am 09:53 Cloudy with Nearby Thunderstorms 68 20 65 18.3 90 90 S 12 19 29.98 1015 8 13 0.00 0.00
10:04 am 10:04 Cloudy with Nearby Thunderstorms 68 20 65 18.3 90 90 S 13 20 29.96 1015 7 11 0.00 0.00
10:15 am 10:15 Cloudy 68 20 65 18.3 90 90 VRB 7 11 29.97 1015 7 11 0.00 0.00
10:24 am 10:24 Cloudy with Nearby Thunderstorms 67 19.4 65 18.3 93 93 SSE 7 11 29.98 1015 7 11 0.00 0.00
10:46 am 10:46 Cloudy with Thunderstorms 65 18.3 62 16.7 90 90 Calm 30.01 1016 4 6 0.04 1.02
10:51 am 10:51 Cloudy with Strong Thunderstorms 63 17 61 16 94 94 W 25 41 30.03 1017 2 2 0.20 5.08
10:53 am 10:53 Cloudy with Strong Thunderstorms 62 16.7 59 15 90 90 W 20 31 30.01 1016 1 1 0.32 8.13
11:03 am 11:03 Cloudy with Strong Thunderstorms 62 16.7 60 15.6 93 93 NNE 17 28 30.02 1017 0 0 0.52 13.21
11:12 am 11:12 Cloudy with Strong Thunderstorms 61 16.1 60 15.6 97 97 E 16 26 30.02 1017 1 1 0.65 16.51
11:23 am 11:23 Cloudy with Thunderstorms 62 16.7 60 15.6 93 93 ENE 12 19 30.01 1016 2 3 0.68 17.27
11:31 am 11:31 Cloudy with Thunderstorms 63 17.2 61 16.1 93 93 ENE 14 22 30.01 1016 8 13 0.69 17.53
11:43 am 11:43 Cloudy with Nearby Thunderstorms 63 17.2 61 16.1 93 93 E 10 17 30.00 1016 2 3 0.80 20.32
11:53 am 11:53 Cloudy with Thunderstorms 63 17.2 61 16.1 93 93 E 13 20 30.00 1016 2 3 0.83 21.08
12:00 pm 12:00 Cloudy with Strong Thunderstorms 62 16.7 61 16.1 96 96 E 10 17 30.02 1017 2 3 0.04 1.02
12:07 pm 12:07 Cloudy with Nearby Thunderstorms 62 16.7 60 15.6 93 93 ESE 13 20 30.02 1017 2 2 0.13 3.30
12:16 pm 12:16 Cloudy with Light Rain 62 16.7 60 15.6 93 93 ESE 12 19 30.02 1017 2 3 0.14 3.56
12:23 pm 12:23 Cloudy with Light Rain 62 16.7 60 15.6 93 93 ESE 10 17 30.02 1017 10 16 0.14 3.56
12:42 pm 12:42 Mostly Cloudy 64 17.8 63 17.2 96 96 ENE 7 11 30.01 1016 10 16 0.14 3.56
12:53 pm 12:53 Mostly Cloudy 65 18.3 61 16.1 87 87 ENE 10 17 30.01 1016 10 16 0.14 3.56
1:38 pm 13:38 Cloudy 66 18.9 61 16.1 84 84 E 18 30 30.02 1017 10 16 0.00 0.00
1:53 pm 13:53 Cloudy 64 17.8 60 15.6 87 87 ENE 21 33 30.03 1017 10 16 0.00 0.00
2:19 pm 14:19 Cloudy with Nearby Thunderstorms 66 18.9 61 16.1 84 84 ENE 21 33 30.01 1016 10 16 0.00 0.00
2:53 pm 14:53 Cloudy 64 17.8 59 15 84 84 E 16 26 30.02 1017 10 16 0.00 0.00
3:12 pm 15:12 Cloudy 63 17.2 59 15 87 87 E 15 24 30.03 1017 10 16 0.00 0.00
3:26 pm 15:26 Cloudy 63 17.2 59 15 87 87 E 15 24 30.03 1017 10 16 0.00 0.00
3:53 pm 15:53 Cloudy 64 17.8 58 14.4 81 81 E 18 30 30.04 1017 10 16 0.00 0.00
4:00 pm 16:00 Cloudy 64 17.8 58 14.4 81 81 E 17 28 30.03 1017 10 16 0.00 0.00
4:42 pm 16:42 Cloudy with Nearby Thunderstorms 64 17.8 58 14.4 81 81 ENE 15 24 30.03 1017 10 16 0.00 0.00
4:53 pm 16:53 Cloudy with Nearby Thunderstorms 64 17.8 58 14.4 81 81 ENE 13 20 30.03 1017 10 16 0.00 0.00
5:07 pm 17:07 Cloudy 63 17.2 58 14.4 84 84 ENE 16 26 30.06 1018 10 16 0.00 0.00
5:34 pm 17:34 Cloudy with Light Rain 63 17.2 57 13.9 81 81 ENE 15 24 30.04 1017 10 16 0.00 0.00
5:53 pm 17:53 Cloudy with Light Rain 62 16.7 57 13.9 84 84 E 14 22 30.02 1017 9 14 0.01 0.25
6:00 pm 18:00 Cloudy with Nearby Thunderstorms 62 16.7 57 13.9 84 84 E 15 24 30.01 1016 7 11 0.01 0.25
6:15 pm 18:15 Cloudy with Light Rain 61 16.1 57 13.9 87 87 SE 31 50 29.94 1014 10 16 0.02 0.51
6:34 pm 18:34 Partly Cloudy 62 16.7 59 15 90 90 ESE 23 37 29.98 1015 10 16 0.02 0.51
6:53 pm 18:53 Mostly Sunny 64 17.8 59 15 84 84 E 21 33 29.98 1015 10 16 0.02 0.51
7:53 pm 19:53 Sunny 65 18.3 56 13.3 73 73 E 13 20 30.03 1017 10 16 0.00 0.00
8:15 pm 20:15 Mostly Cloudy 65 18.3 57 13.9 76 76 ENE 10 17 30.05 1018 10 16 0.00 0.00
8:46 pm 20:46 Partly Cloudy 63 17.2 57 13.9 81 81 E 6 9 30.06 1018 10 16 0.00 0.00
8:53 pm 20:53 Mostly Clear 62 16.7 57 13.9 84 84 E 5 7 30.06 1018 10 16 0.00 0.00
9:53 pm 21:53 Clear 61 16.1 57 13.9 87 87 ENE 3 6 30.08 1019 10 16 0.00 0.00
10:53 pm 22:53 Clear 61 16.1 57 13.9 87 87 ENE 5 7 30.10 1019 10 16 0.00 0.00
11:53 pm 23:53 Clear 60 15.6 57 13.9 90 90 SE 6 9 30.07 1018 10 16 0.00 0.00

Powered by AerisWeather